Погода в Петалинге Джайе

Малайзия     3°01′35″N   101°37′18″E
темп.,
°C
ветер,
м/с
пор.,
м/с
влажн.,
%
обл.,
%
осадки,
мм/ч
давл.,
гПа
погр.,
м
7 мая, пт
пт723:00+25ссв1193100 0.0 101015
02:00+24с119379 0.1 101012
05:00+24всв1193100 0.0 100814
08:00+25юв1190100 0.0 101058
11:00+29ююв2373100 0.0 1011721
14:00+30ююз227396 1.7 1009892
17:00+30ю227181 1.0 1006884
20:00+26ююв2290100 2.2 100930
8 мая, сб
сб823:00+25вюв1191100 0.0 101024
02:00+25вюв129291 0.0 100928
05:00+24вюв119297 0.1 100713
08:00+25в0190100 0.1 100952
11:00+29ююз117613 1.6 1010490
14:00+32з2164100 1.8 10071402
17:00+28ю2384100 2.4 1006207
20:00+26вюв1190100 3.1 100813
9 мая, вс
вс923:00+26ссв119097 0.2 100916
02:00+25в009185 2.1 100811
05:00+24св1193100 0.3 100812
08:00+25ссв1192100 1.7 101050
11:00+29сз23788 3.0 1011595
14:00+31зсз346574 4.1 10081381
17:00+29зсз447392 0.7 1007976
20:00+26зсз1187100 0.8 100819
10 мая, пн
пн1023:00+26ссз1188100 0.0 101022
02:00+25с119498 1.6 100820
05:00+24с129531 0.1 100734
08:00+25в11915 0.1 100963
11:00+30ююв007013 0.0 1010881
14:00+30зюз227599 3.0 1007896
17:00+29з2281100 4.1 1006543
20:00+26з1190100 4.9 100811
11 мая, вт
вт1123:00+25ссв119299 0.0 100914
02:00+25ссв119268 0.0 100812
05:00+25в00931 0.1 100811
08:00+26вюв11912 0.1 100952
11:00+30юв11695 0.1 1010845
14:00+32з226283 0.2 10071341
17:00+31з22668 0.2 1005861
20:00+27зсз228374 0.3 100736